User: anonymous   Login
Location: Writing-on-Stone Provincial Park
(49.0825°N, 111.6163°W)
Time: 17:55:58
(UTC-06:00)
Language:

BREEZE-M DEB (TANK) - Orbit

View from above orbital plane
View from above orbital plane
View from above satellite
View from above satellite

Ground track
Ground track

The orbit data is extracted from the following two-line orbital elements,

1 29649U 06056B   14294.40426510  .00004767  00000-0  68077-3 0   401
2 29649 049.4668 219.6068 5420242 278.8402 197.7091 04.95102755139488
Epoch (UTC): 21 October 2014 09:42:08
Eccentricity: 0.5420242
inclination: 49.4668°
perigee height: 281 km
apogee height: 16045 km
right ascension of ascending node: 219.6068°
argument of perigee: 278.8402°
revolutions per day: 4.95102755
mean anomaly at epoch: 197.7091°
orbit number at epoch: 13948

The dashed part of the orbit path shows where the satellite is in the earth's shadow,  

DLR